Location: Unspecified
(0.0000°N, 0.0000°E)
Time: 02:33:23
(UTC+00:00)

ONEWEB-0019 - Visible Passes

Search period start: 04 October 2024 00:00
Search period end: 14 October 2024 00:00
Orbit: 1216 x 1219 km, 87.9° (Epoch: 03 October)

Date Brightness Start Highest point End Pass type
(mag) Time Alt. Az. Time Alt. Az. Time Alt. Az.
08 Oct ? 20:47:07 11° SSW 20:47:07 11° SSW 20:47:21 10° SSW visible
09 Oct ? 20:34:26 16° S 20:34:26 16° S 20:35:42 10° S visible
10 Oct ? 20:21:38 23° S 20:21:38 23° S 20:24:01 10° S visible
11 Oct ? 20:08:39 33° S 20:08:39 33° S 20:12:19 10° S visible
12 Oct ? 19:55:27 48° SSE 19:55:27 48° SSE 20:00:33 10° S visible
13 Oct ? 19:41:46 62° ESE 19:41:46 62° ESE 19:48:46 10° S visible
13 Oct ? 21:31:27 12° W 21:31:27 12° W 21:33:31 10° WSW visible
